Starlink 4539

operational
NORAD ID: 53423 Int'l Des: 2022-097 Owner: SPXS Country: US Constellation: starlink
LEOCIRCULAR

Starlink 4539について

説明を読み込み中...

リアルタイム位置

3D地球を読み込み中...

次回通過

高度履歴

Altitude vs Time

uPlot chart will show altitude changes over time

軌道要素

1 53423U 22097AM 26062.45090045 .00000042 00000-0 20701-4 0 9990
2 53423 53.2166 142.1387 0001219 91.5960 268.5172 15.08838342197685
Epoch: Mar 3, 2026 • Age: 29 hours

現在のステータス

高度 543.8 km
速度 7.60 km/s
衛星直下点 45.60°N, 35.01°E
打ち上げ日 Aug 10, 2022
運用期間 3.5 years
タイプ internet

技術仕様

分類 Payload
質量 297.00 kg
乾燥質量 275.00 kg
総質量 297.00 kg
長さ 0.20 m
直径 2.80 m
スパン 9.00 m
形状 Box + pan
製造者 SPXS
バスタイプ Starlink
フェーズステータス In Orbit
所有者/国 SPXS/US

大規模コンステレーション

Loading constellations...